Weather observations for the past three days for
Cedar Rapids Airport
Metric (Imperial)
Date Time (cdt) Wind (kph) Vis. (km) Weather Sky Cond. Temperature (ºC) Relative Humidity Wind Chill (°C) Heat Index (°C) Pressure Precipitation (cm)
Air Dwpt 6 hour altimeter (cm) sea level (mb) 1 hr 3 hr 6 hr
Max. Min.
08 09:52 SE 6 16.09 Fair CLR 17.8 6.7 48% 75.69 1008.9
08 08:52 SE 11 16.09 Fair CLR 14.4 6.7 60% 75.72 1009.5
08 07:52 SE 7 16.09 Fair CLR 11.1 3.3 59% 75.74 1009.6
08 06:52 E 6 9.66 Fair with Haze CLR 8.3 -1.1 11.1 4.4 52% 75.72 1009.6
08 05:52 SE 7 8.05 Fair with Haze CLR 5 -2.8 57% 4 75.72 1009.6
08 04:52 E 15 16.09 Fair CLR 6.7 -2.8 51% 4 75.69 1009.3
08 03:52 E 15 16.09 Fair CLR 7.8 -3.3 46% 6 75.72 1009.4
08 02:52 E 17 16.09 Fair CLR 8.3 -2.8 46% 6 75.74 1009.7
08 01:52 E 19 16.09 Partly Cloudy SCT100 10 -2.8 41% 8 75.79 1010.3
08 00:52 NE 15 16.09 Mostly Cloudy BKN110 10.6 -2.2 17.2 10.6 41% 75.82 1010.8
07 23:52 NE 15 16.09 Mostly Cloudy BKN100 12.2 -1.1 40% 75.82 1010.9
07 22:52 NE 9 16.09 Mostly Cloudy BKN110 14.4 -1.7 33% 75.79 1010.7
07 21:52 Calm 16.09 Overcast OVC090 15 0.6 38% 75.77 1010.2
07 20:52 NE 6 11.27 Mostly Cloudy BKN110 13.3 0.6 42% 75.72 1009.4
07 19:52 W 11 14.48 Partly Cloudy FEW085 SCT110 15 0.6 38% 75.67 1009.1
07 18:52 W 22 16.09 Overcast SCT080 OVC100 17.2 0 18.9 16.1 31% 75.67 1009.0
07 17:52 W 28 12.87 Mostly Cloudy BKN090 17.2 -0.6 30% 75.69 1009.1
07 16:52 W 35 G 56 16.09 Partly Cloudy and Breezy FEW085 SCT110 18.9 0 28% 75.69 1009.5
07 15:52 W 22 G 41 16.09 Partly Cloudy SCT110 17.2 1.1 34% 75.74 1010.0
07 14:52 SW 31 G 43 16.09 Mostly Cloudy BKN110 16.1 0.6 35% 75.77 1010.4
07 13:52 SW 28 G 44 16.09 A Few Clouds FEW060 16.7 3.9 43% 75.79 1010.7
07 12:52 SW 30 G 46 16.09 A Few Clouds FEW055 16.1 3.3 16.1 5 43% 75.82 1011.2
07 11:52 SW 33 G 57 16.09 Fair and Breezy CLR 14.4 3.3 48% 75.87 1011.7
07 10:52 SW 30 G 46 16.09 Mostly Cloudy FEW055 BKN075 BKN095 11.1 2.2 55% 75.9 1012.2
07 09:52 SW 28 G 35 16.09 Overcast OVC100 12.8 2.2 49% 75.87 1011.6
07 08:52 SW 28 16.09 A Few Clouds FEW120 10.6 0.6 50% 75.95 1012.7
07 07:52 S 19 16.09 A Few Clouds FEW095 7.8 -1.1 54% 5 75.97 1012.9
07 06:52 S 15 16.09 Overcast with Haze OVC110 5 -1.7 6.1 -0.6 62% 2 75.97 1013.3
07 05:52 SW 24 11.27 Overcast OVC100 5 -1.7 62% 1 75.97 1013.2
07 04:52 S 7 16.09 Mostly Cloudy BKN100 1.1 -2.2 79% -1 76.05 1014.3
07 03:52 SE 6 14.48 Partly Cloudy SCT110 0 -2.8 82% 76.07 1014.7
07 02:52 SE 6 16.09 A Few Clouds FEW100 1.1 -3.3 73% 76.1 1015.1
07 01:52 Calm 16.09 Fair CLR 0.6 -3.3 75% 76.15 1015.7
07 00:52 Calm 16.09 Fair CLR 3.3 -4.4 11.1 2.2 57% 76.17 1016.2
06 23:52 Calm 16.09 Fair CLR 2.8 -4.4 59% 76.17 1016.1
06 22:52 Calm 14.48 Fair CLR 3.3 -4.4 57% 76.17 1016.1
06 21:52 Calm 16.09 Fair CLR 4.4 -5 51% 76.2 1016.3
06 20:52 NW 9 16.09 Fair CLR 7.8 -5 40% 6 76.17 1015.9
06 19:52 NW 17 16.09 Fair CLR 9.4 -5 36% 7 76.15 1015.7
06 17:52 W 24 G 43 9.66 Mostly Cloudy with Haze BKN080 11.7 -4.4 32% 76.17 1016.0
06 16:52 W 28 14.48 Mostly Cloudy BKN080 11.1 -4.4 34% 76.17 1016.1
06 15:52 NW 22 G 41 16.09 Overcast OVC075 11.1 -4.4 34% 76.2 1016.4
06 14:52 W 31 G 46 16.09 Mostly Cloudy BKN075 11.1 -5 32% 76.25 1016.9
06 13:52 NW 33 G 56 16.09 Overcast and Breezy OVC070 11.1 -3.9 35% 76.25 1017.0
06 12:52 NW 28 G 48 16.09 Overcast OVC070 10.6 -3.9 11.7 3.9 36% 76.28 1017.2
06 11:52 NW 28 G 50 16.09 Mostly Cloudy BKN065 10.6 -4.4 35% 76.28 1017.1
06 10:52 NW 28 G 39 14.48 A Few Clouds FEW060 10.6 -3.9 36% 76.28 1016.9
06 09:52 NW 22 G 39 16.09 Fair CLR 8.3 -4.4 41% 5 76.28 1017.1
06 08:52 N 26 16.09 Fair CLR 7.2 -4.4 44% 4 76.25 1016.8
06 07:52 NW 13 16.09 Fair CLR 5 -2.8 57% 2 76.2 1016.3
06 06:52 NW 9 16.09 Fair CLR 3.3 -2.2 6.1 2.2 68% 1 76.15 1015.4
06 05:52 NW 11 16.09 Fair CLR 2.8 -2.8 67% 0 76.07 1014.5
06 04:52 NW 11 16.09 Fair CLR 2.8 -2.8 67% 0 76.05 1014.3
06 03:52 NW 11 16.09 Fair CLR 2.2 -3.3 67% -1 76 1013.7
06 02:52 NW 13 16.09 Fair CLR 2.8 -3.3 65% -0 76.02 1013.9
06 01:52 NW 11 16.09 Fair CLR 3.3 -3.3 62% 1 75.97 1013.3
06 00:52 NW 6 14.48 Fair CLR 6.1 -3.9 13.9 6.1 49% 75.95 1012.9
05 23:52 N 9 16.09 Fair CLR 8.3 -3.9 42% 7 75.92 1012.4
05 22:52 N 22 16.09 Fair CLR 10 -3.9 38% 7 75.9 1011.9
05 21:52 N 17 16.09 Fair CLR 10.6 -3.9 36% 75.87 1011.5
05 20:52 N 28 G 39 16.09 Fair CLR 11.7 -3.9 34% 75.79 1010.6
05 19:52 N 20 16.09 Fair CLR 12.8 -3.9 31% 75.72 1009.5
05 18:52 NW 30 16.09 Fair CLR 13.9 -4.4 15 12.8 28% 75.67 1009.1
05 17:52 NW 30 G 39 12.87 Fair CLR 14.4 -3.9 28% 75.64 1008.7
05 16:52 W 19 14.48 A Few Clouds FEW080 14.4 -3.3 29% 75.67 1008.9
05 15:52 W 19 16.09 A Few Clouds FEW075 14.4 -2.8 31% 75.72 1009.5
05 14:52 W 15 16.09 Partly Cloudy SCT075 13.9 -2.2 33% 75.77 1010.1
05 13:52 W 20 G 41 16.09 Fair CLR 13.3 -2.8 33% 75.82 1010.8
05 12:52 NW 26 G 35 16.09 Partly Cloudy SCT070 12.8 -2.8 13.3 5.6 34% 75.84 1011.1
05 11:52 NW 13 G 26 16.09 Fair CLR 11.7 -3.9 34% 75.84 1011.3
05 10:52 Calm 16.09 Fair CLR 10.6 -3.3 38% 75.84 1011.2
Date Time (cdt) Wind (kph) Vis. (km) Weather Sky Cond. Air Dwpt Max. Min. Relative Humidity Wind Chill (°C) Heat Index (°C) altimeter (cm) sea level (mb) 1 hr 3 hr 6 hr
6 hour
Temperature (ºC) Pressure Precipitation (cm)